Regional Weather Roundup
Issued by NWS

Home | Current Version | Previous Version | Text Only | Print | Product List | Glossary On
Versions: 1 2 3 4 5 6 7 8 9 10 11 12 13 14 15 16 17 18 19 20 21 22 23 24 25 26 27 28 29 30 31 32 33 34 35 36 37 38 39 40 41 42 43 44 45 46 47 48 49 50
567
ASUS43 KTOP 220108
RWRKS

WEATHER ROUNDUP FOR KANSAS
NATIONAL WEATHER SERVICE GOODLAND KS
800 PM CDT THU SEP 21 2017

NOTE:  "FAIR" INDICATES FEW OR NO CLOUDS BELOW 12,000 FEET WITH NO
SIGNIFICANT WEATHER AND/OR OBSTRUCTIONS TO VISIBILITY.

KSZ001>006-013>018-027>032-041>047-220200-
NORTHWEST KANSAS

CITY           SKY/WX    TMP DP  RH WIND       PRES   REMARKS
GOODLAND       CLEAR     82  34  17 S14       29.67R
HAYS           PTCLDY    91  58  32 S20       29.68R
HILL CITY      CLEAR     89  40  17 S9        29.67R
RUSSELL        CLEAR     92  56  29 S21G30    29.68R
$$

KSZ061>065-074>080-084>089-220200-
SOUTHWEST KANSAS

CITY           SKY/WX    TMP DP  RH WIND       PRES   REMARKS
DODGE CITY     CLEAR     89  58  34 S23G30    29.74R
ELKHART          N/A     82  45  27 S10         N/A
GARDEN CITY    CLEAR     84  42  22 S12       29.72R
GREAT BEND     CLEAR     90  63  40 S23G32    29.72R
LIBERAL        CLEAR     83  47  28 S13       29.76
PRATT          CLEAR     88  65  47 S20G26    29.76R
$$

KSZ066>073-081>083-090>101-220200-
SOUTHEAST KANSAS

CITY           SKY/WX    TMP DP  RH WIND       PRES   REMARKS
CHANUTE        CLEAR     82  72  71 SE9       29.87R
COFFEYVILLE    CLEAR     84  72  67 S10       29.85S
HUTCHINSON     CLEAR     90  67  46 S17G33    29.76R
MEDICINE LODGE   N/A     88  67  49 S16G28    29.76R
NEWTON         CLEAR     85  72  65 S18       29.81R
WICHITA INTL   PTCLDY    87  73  62 S16       29.79R
WICHITA JABRA  CLEAR     85  73  67 SE18G26   29.80R
WICHITA MCCONL CLEAR     86  71  60 S18       29.81R
WINFIELD       CLEAR     85  73  67 S17       29.83R
$$

KSZ007>012-019>026-033>040-048>060-102>105-220200-
NORTHEAST KANSAS

CITY           SKY/WX    TMP DP  RH WIND       PRES   REMARKS
CONCORDIA      CLEAR     88  70  55 S18G28    29.71R
EMPORIA        CLEAR     84  70  62 S17G26    29.82R
LAWRENCE       CLEAR     84  74  71 SE14      29.83S
MANHATTAN      CLEAR     88  73  61 S16G23    29.76R HX  95
MARYSVILLE     CLEAR     86  73  66 S17G24    29.76R
OLATHE IND     CLEAR     82  73  74 S10       29.87R
OLATHE EXE     CLEAR     82  74  76 S12       29.87R
SALINA         PTCLDY    92  70  48 S22       29.73R HX  97
TOPEKA BILLARD CLEAR     85  75  72 SE14      29.81R
TOPEKA FORBES  CLEAR     85  74  69 SE14      29.83R
$$




USA.gov is the U.S. government's official web portal to all federal, state and local government web resources and services.